Regional Weather Roundup
Issued by NWS

Home | Current Version | Previous Version | Graphics & Text | Print | Product List | Glossary Off
Versions: 1 2 3 4 5 6 7 8 9 10 11 12 13 14 15 16 17 18 19 20 21 22 23 24 25 26 27 28 29 30 31 32 33 34 35 36 37 38 39 40 41 42 43 44 45 46 47 48 49 50

000
ASUS43 KDMX 061404
RWRIA

WEATHER ROUNDUP FOR IOWA
NATIONAL WEATHER SERVICE DES MOINES IA
  ISSUED BY NWS QUAD CITIES IA IL
800 AM CST FRI MAR 06 2015

NOTE: "FAIR" INDICATES FEW OR NO CLOUDS BELOW 12,000 FEET WITH NO
SIGNIFICANT WEATHER AND/OR OBSTRUCTIONS TO VISIBILITY.

* - THESE STATIONS ARE NOT NWS STATIONS...THUS NOT UNDER NWS
QUALITY CONTROL.  THEY ALSO DO NOT REPORT WEATHER SUCH
AS PRECIPITATION OR FOG.

IAZ001>003-012>014-020>022-031>034-043>046-061500-
   NORTHWEST IOWA

CITY           SKY/WX    TMP DP  RH WIND       PRES   REMARKS
CARROLL *      SUNNY     25  16  68 SW10      30.15S WCI  15
CHEROKEE *     SUNNY     19  12  75 CALM      30.14S
DENNISON *     SUNNY     21  14  73 SW5       30.15R WCI  15
LE MARS *      SUNNY     19  12  73 S6        30.14S WCI  11
ORANGE CITY *  SUNNY     19  12  73 CALM      30.11S
SHELDON *      SUNNY     21  12  68 SW3       30.10R
SIOUX CITY     FAIR      19  11  70 E5        30.15S WCI  12
SPENCER        SUNNY     19  11  70 W6        30.11S WCI  11
STORM LAKE *   SUNNY     21  14  73 W13       30.12S WCI   9
$$

IAZ055>058-069>071-079>083-090>094-061500-
   SOUTHWEST IOWA

CITY           SKY/WX    TMP DP  RH WIND       PRES   REMARKS
ATLANTIC *     SUNNY     23  16  74 S6        30.18S WCI  16
AUDUBON *      MOSUNNY   21  16  79 S6        30.17R WCI  14
CLARINDA *     SUNNY     23  19  86 S7        30.24R WCI  15
COUNCIL BLFS * SUNNY     25  18  74 SW8       30.17S WCI  16
CRESTON *      MOSUNNY   23  16  74 SW13      30.19S WCI  11
HARLAN *       SUNNY     19  18  93 SW6       30.21R WCI  11
LAMONI         MOSUNNY   23  15  71 S14       30.21F WCI  11
RED OAK *      SUNNY     23  18  80 S6        30.21R WCI  16
SHENANDOAH *   SUNNY     27  21  80 SW8       30.23R WCI  18
$$

IAZ047>049-059>061-072>074-084-061500-
   CENTRAL IOWA

CITY           SKY/WX    TMP DP  RH WIND       PRES   REMARKS
AMES           MOSUNNY   20  12  71 S7        30.18F WCI  11
ANKENY *       MOSUNNY   23  14  68 S12       30.20S WCI  12
BOONE *        MOSUNNY   23  14  68 SW12G18   30.15S WCI  12
CHARITON *     SUNNY     25  14  63 S15       30.21F WCI  12
DES MOINES     PTSUNNY   24  13  62 S12       30.20S WCI  13
GRINNELL *     SUNNY     19  12  73 S13       30.21S WCI   7
KNOXVILLE *    SUNNY     23  12  63 S14G22    30.20F WCI  11
MARSHALLTOWN   SUNNY     18  10  71 S9        30.18F WCI   7
NEWTON *       SUNNY     23  12  63 S13       30.21S WCI  11
PELLA *        SUNNY     25  17  70 SW14      30.23F WCI  13
PERRY *          N/A     22  17  81 S8        30.17F WCI  12
$$

IAZ004>006-015-016-023>025-035-036-061500-
   NORTH CENTRAL IOWA

CITY           SKY/WX    TMP DP  RH WIND       PRES   REMARKS
ALGONA *       SUNNY     18  12  79 S10       30.12S WCI   6
CLARION *      SUNNY     16  12  86 S9        30.14S WCI   4
ESTHERVILLE    SUNNY     19  11  70 SW15      30.09S WCI   5
FORT DODGE *   SUNNY     19  10  68 S8        30.15S WCI   9
MASON CITY     SUNNY     11   7  84 S6        30.15R WCI   1
FOREST CITY *  FAIR      18   9  68 S6        30.12S WCI   9
WEBSTER CITY * MOSUNNY   19  14  79 S7        30.14S WCI  10
IOWA FALLS *   FAIR      15  10  78 S10       30.16F WCI   3
$$

IAZ007>011-017>019-026>030-037>042-050>054-066-061500-
   NORTHEAST IOWA

CITY           SKY/WX    TMP DP  RH WIND       PRES   REMARKS
CEDAR RAPIDS   CLOUDY    14   6  70 S12       30.23F WCI   0
CHARLES CITY * SUNNY     10   5  79 S12       30.17S WCI  -4
CLINTON *      MOSUNNY    9   1  72 S14       30.34F WCI  -8
DECORAH *      SUNNY     14   3  62 S12G18    30.17S WCI   0
DUBUQUE        MOSUNNY    4  -2  76 S17       30.22F WCI -16
MONTICELLO *   PTSUNNY   10   3  72 SE12      30.26S WCI  -4
OELWEIN *      SUNNY     12   5  73 S18       30.20S WCI  -5
WATERLOO       SUNNY     14   7  73 S9        30.20S WCI   2
$$

IAZ064-065-067-068-078-061500-
   EAST CENTRAL IOWA

CITY           SKY/WX    TMP DP  RH WIND       PRES   REMARKS
DAVENPORT      SUNNY     13   2  61 S18       30.31F WCI  -4
IOWA CITY      CLOUDY    15   6  67 SE7       30.29F WCI   5
MT. PLEASANT * CLOUDY    17   8  67 S16G23    30.30F WCI   2
MUSCATINE *    FAIR      14   5  67 SE8       30.33F WCI   3
QUAD CITIES    MOSUNNY   12   2  64 S10       30.33F WCI  -1
$$

IAZ062-063-075>077-085>089-095>099-061500-
   SOUTHEAST IOWA

CITY           SKY/WX    TMP DP  RH WIND       PRES   REMARKS
BURLINGTON     PTSUNNY   14   6  70 S15       30.33F WCI  -1
FAIRFIELD *    PTSUNNY   18   9  68 S14G22    30.27S WCI   4
FORT MADISON * PTSUNNY   12   7  79 S14       30.32F WCI  -3
KEOKUK *       CLOUDY    21   9  58 S14G21    30.32F WCI   8
OSKALOOSA *    FAIR      21  13  71 S14       30.25S WCI   8
CENTERVILLE *  FAIR      25  14  63 S16       30.25S WCI  12
OTTUMWA        SUNNY     21  11  65 S16       30.25R WCI   7
WASHINGTON *   MOSUNNY   18  10  73 S21       30.26F WCI   1
$$

ABBREVIATIONS USED IN REMARKS
   TC - TEMPERATURES IN CELSIUS
  WCI - WIND CHILL INDEX
   HX - HEAT INDEX
  VSB - VISIBILITY
$$


USA.gov is the U.S. government's official web portal to all federal, state and local government web resources and services.